Regional Weather Roundup
Issued by NWS

Home | Current Version | Previous Version | Text Only | Print | Product List | Glossary On
Versions: 1 2 3 4 5 6 7 8 9 10 11 12 13 14 15 16 17 18 19 20 21 22 23 24 25 26 27 28 29 30 31 32 33 34 35 36 37 38 39 40 41 42 43 44 45 46 47 48 49 50
000
ASUS45 KABQ 300310
RWRNM
NEW MEXICO REGIONAL WEATHER ROUNDUP
NATIONAL WEATHER SERVICE ALBUQUERQUE NM
900 PM MDT FRI APR 29 2016

NOTE: "FAIR" MEANS FEW OR NO CLOUDS BELOW 12,000 FEET AGL WITH NO
       SIGNIFICANT WEATHER OR OBSTRUCTIONS TO VISION.

      THIS PRODUCT IS RELEASED AS TWO VERSIONS.  ONE VERSION NEAR
      THE TOP OF THE HOUR CONTAINING PRELIMINARY DATA FROM ALBUQUERQUE
      AND OTHER STATIONS.  A FINAL VERSION WITH ADDITIONAL DATA IS
      ISSUED ABOUT 10 MINUTES AFTER THE HOUR.

NMZ501-503-504-510>518-300400-
NORTHWEST PLATEAU/NORTHCENTRAL MOUNTAINS

CITY           SKY/WX    TMP DP  RH WIND       PRES   REMARKS
FARMINGTON     FAIR      49  25  39 NW8       29.81R
LOS ALAMOS     CLOUDY    38  35  91 CALM      29.88R
SANTA FE       MOCLDY    45  33  63 W12       29.85R
TAOS           CLOUDY    39  30  70 NE6       29.86R WCI  35
ANGEL FIRE     LGT SNOW  32  31  95 E6        29.87S WCI  27

$$
NMZ402-403-502-505>509-300400-
WESTCENTRAL MOUNTAINS/SOUTHWEST MOUNTAINS

CITY           SKY/WX    TMP DP  RH WIND       PRES   REMARKS
GALLUP         LGT RAIN  42  36  79 SE3       29.89R
GRANTS         CLOUDY    42  36  79 NW5       29.92R
SILVER CITY      N/A     52  25  35 NW5       29.95R

$$
NMZ407-409-411-412-300400-
SOUTHERN DESERTS

CITY           SKY/WX    TMP DP  RH WIND       PRES   REMARKS
LORDSBURG      FAIR      59  27  29 NW9       29.91R
DEMING         FAIR      60  29  30 W10       29.88R
LAS CRUCES     FAIR      60  26  27 W10       29.88R
HOLLOMAN AFB   MOCLDY    64  26  23 SW18      29.82R
ALAMOGORDO     FAIR      63  25  23 W14G20    29.84R
T OR C         FAIR      60  25  26 W10       29.85R

$$
NMZ519>523-300400-
CENTRAL VALLEYS/CENTRAL HIGHLANDS

CITY           SKY/WX    TMP DP  RH WIND       PRES   REMARKS
ALBUQUERQUE    MOCLDY    52  33  48 SW13      29.86R
DOUBLE EAGLE   MOCLDY    46  36  66 W10       29.87R
MORIARTY ARPT  MOCLDY    42  32  66 W20G26    29.91R
CLINES CORNERS FAIR      38  31  76 SW20G25   29.85R WCI  28
BELEN          MOCLDY    46  40  78 W8        29.88R
SOCORRO        CLOUDY    58  29  33 NW12      29.85R

$$
NMZ524>526-539-540-300400-
SOUTHCENTRAL MOUNTAINS

CITY           SKY/WX    TMP DP  RH WIND       PRES   REMARKS
RUIDOSO          N/A     46  19  34 W8        29.91R

$$
NMZ527>531-300400-
NORTHEAST HIGHLANDS/NORTHEAST PLAINS

CITY           SKY/WX    TMP DP  RH WIND       PRES   REMARKS
LAS VEGAS      FAIR      41  27  57 SW12      29.84R
RATON          CLOUDY    35  27  72 N14       29.85R WCI  26
CLAYTON        CLOUDY    41  36  82 N9        29.85R

$$
NMZ532>537-300400-
EASTCENTRAL PLAINS

CITY           SKY/WX    TMP DP  RH WIND       PRES   REMARKS
TUCUMCARI      FAIR      45  42  89 E6        29.80R
CANNON AFB     NOT AVBL
CLOVIS AIRPORT FAIR      48  43  81 NE13      29.81R

$$
NMZ028-029-538-300400-
SOUTHEAST PLAINS

CITY           SKY/WX    TMP DP  RH WIND       PRES   REMARKS
ROSWELL        MOCLDY    67  17  14 W12       29.76R
ARTESIA        FAIR      66  23  19 SW15      29.78R
CARLSBAD       FAIR      67  21  17 SW9       29.77R
HOBBS          FAIR      59  18  20 SW9       29.80R


$$




USA.gov is the U.S. government's official web portal to all federal, state and local government web resources and services.